Weather History for KELM - October, 2011

Change the Weather History Date:

Friday, October 7, 2011

  Actual Average Record
Temperature  
Mean Temperature 53 °F -  
Max Temperature 72 °F 63 °F 86 °F (1941)
Min Temperature 35 °F 39 °F 25 °F (1964)
Degree Days  
Heating Degree Days 12    
Growing Degree Days 3 (Base 50)    
Moisture  
Dew Point 39 °F    
Average Humidity 85    
Maximum Humidity 100    
Minimum Humidity 31    
Precipitation  
Precipitation 0.00 in - - ()
Sea Level Pressure  
Sea Level Pressure 30.43 in    
Wind  
Wind Speed 0 mph (West)    
Max Wind Speed 4 mph    
Max Gust Speed -    
Visibility 5 miles    
Events Fog    
Averages and records for this station are not official NWS values.
T = Trace of Precipitation, MM = Missing Value Source: NWS Daily Summary

Daily Weather History Graph

Daily Weather History Graph

Search for Another Location

Airport or City:

Trip Planner

Search our weather history database for the weather conditions in past years. The results will help you decide how hot, cold, wet, or windy it might be!

Date:

Astronomy

Oct. 07, 2011 Rise Set
Actual Time 7:10 AM EDT 6:39 PM EDT
Civil Twilight 6:42 AM EDT 7:07 PM EDT
Nautical Twilight 6:10 AM EDT 7:39 PM EDT
Astronomical Twilight 5:37 AM EDT 8:12 PM EDT
Moon 4:24 PM EDT (10/7) 2:53 AM EDT (10/7)
Length of Visible Light 12h 24m
Length of Day
11h 28m
Waxing Gibbous, 83% of the Moon is Illuminated
Oct 7
Waxing Gibbous
Oct 11
Full
Oct 19
Last Quarter
Oct 26
New
Nov 2
First Quarter

Hourly Weather History & Observations

Time (EDT) Temp. Windchill Dew Point Humidity Pressure Visibility Wind Dir Wind Speed Gust Speed Precip Events Conditions
12:53 AM 37.0 °F - 34.0 °F 89% 30.40 in 10.0 mi Calm Calm - N/A   Clear
1:17 AM 37.4 °F - 33.8 °F 87% 30.39 in 2.0 mi Calm Calm - N/A   Clear
1:26 AM 37.4 °F - 35.6 °F 93% 30.39 in 9.0 mi Calm Calm - N/A   Clear
1:53 AM 37.9 °F - 35.1 °F 89% 30.41 in 9.0 mi Calm Calm - N/A   Clear
2:00 AM 37.4 °F - 35.6 °F 93% 30.39 in 1.5 mi Calm Calm - N/A   Clear
2:15 AM 37.4 °F - 33.8 °F 87% 30.39 in 0.8 mi Calm Calm - N/A   Mist
2:19 AM 37.4 °F - 33.8 °F 87% 30.39 in 1.5 mi Calm Calm - N/A   Partly Cloudy
2:26 AM 35.6 °F - 33.8 °F 93% 30.39 in 8.0 mi Calm Calm - N/A   Partly Cloudy
2:53 AM 35.1 °F - 33.1 °F 92% 30.40 in 2.0 mi Calm Calm - N/A   Clear
3:00 AM 35.6 °F - 32.0 °F 87% 30.39 in 1.2 mi Calm Calm - N/A   Clear
3:09 AM 35.6 °F - 33.8 °F 93% 30.39 in 3.0 mi Calm Calm - N/A   Clear
3:12 AM 35.6 °F - 33.8 °F 93% 30.39 in 1.8 mi Calm Calm - N/A   Clear
3:17 AM 35.6 °F - 32.0 °F 87% 30.40 in 1.0 mi Calm Calm - N/A   Mist
3:27 AM 35.6 °F - 32.0 °F 87% 30.40 in 2.5 mi Calm Calm - N/A   Partly Cloudy
3:34 AM 35.6 °F - 33.8 °F 93% 30.40 in 9.0 mi Calm Calm - N/A   Partly Cloudy
3:53 AM 36.0 °F - 33.1 °F 89% 30.41 in 10.0 mi Calm Calm - N/A   Scattered Clouds
4:12 AM 35.6 °F - 33.8 °F 93% 30.40 in 10.0 mi Calm Calm - N/A   Mostly Cloudy
4:50 AM 37.4 °F - 35.6 °F 93% 30.41 in 1.8 mi Calm Calm - N/A   Overcast
4:53 AM 37.9 °F - 36.0 °F 93% 30.43 in 0.8 mi Calm Calm - N/A   Overcast
5:03 AM 37.4 °F 34.9 °F 35.6 °F 93% 30.41 in 0.2 mi WSW 3.5 mph - N/A Fog Fog
5:11 AM 37.4 °F - 35.6 °F 93% 30.41 in 0.2 mi Calm Calm - N/A Fog Fog
5:53 AM 39.0 °F - 37.0 °F 93% 30.44 in 0.2 mi Calm Calm - N/A Fog Fog
5:56 AM 39.2 °F - 37.4 °F 93% 30.43 in 0.1 mi Calm Calm - N/A Fog Fog
6:35 AM 39.2 °F 37.0 °F 37.4 °F 93% 30.43 in 0.1 mi NW 3.5 mph - N/A Fog Fog
6:48 AM 39.2 °F 37.0 °F 37.4 °F 93% 30.43 in 0.2 mi WNW 3.5 mph - N/A Fog Fog
6:53 AM 39.0 °F - 37.0 °F 93% 30.45 in 0.2 mi Calm Calm - N/A Fog Fog
7:53 AM 39.0 °F - 37.0 °F 93% 30.47 in 0.2 mi Calm Calm - N/A Fog Fog
8:53 AM 41.0 °F 39.0 °F 39.0 °F 93% 30.49 in 0.2 mi SSW 3.5 mph - N/A Fog Fog
9:29 AM 42.8 °F - 41.0 °F 93% 30.47 in 0.5 mi Calm Calm - N/A Fog Fog
9:41 AM 42.8 °F - 42.8 °F 100% 30.48 in 1.8 mi Calm Calm - N/A   Overcast
9:44 AM 42.8 °F - 42.8 °F 100% 30.48 in 3.0 mi Calm Calm - N/A   Overcast
9:51 AM 42.8 °F - 42.8 °F 100% 30.48 in 1.5 mi Calm Calm - N/A   Overcast
9:53 AM 43.0 °F - 43.0 °F 100% 30.50 in 1.5 mi Calm Calm - N/A   Overcast
10:05 AM 44.6 °F - 42.8 °F 93% 30.48 in 2.0 mi Calm Calm - N/A   Mostly Cloudy
10:10 AM 44.6 °F - 44.6 °F 100% 30.48 in 10.0 mi Calm Calm - N/A   Scattered Clouds
10:53 AM 50.0 °F - 45.0 °F 83% 30.49 in 10.0 mi Calm Calm - N/A   Clear
11:53 AM 57.2 °F - 46.4 °F 67% 30.47 in 10.0 mi Calm Calm - N/A   Clear
1:53 PM 68.0 °F - 36.0 °F 31% 30.45 in 10.0 mi Calm Calm - N/A   Clear
2:53 PM 70.0 °F - 42.1 °F 36% 30.43 in 10.0 mi Calm Calm - N/A   Clear
3:53 PM 71.1 °F - 42.1 °F 35% 30.43 in 10.0 mi Calm Calm - N/A   Clear
4:53 PM 70.0 °F - 43.0 °F 38% 30.42 in 10.0 mi Calm Calm - N/A   Clear
5:53 PM 68.0 °F - 48.0 °F 49% 30.42 in 10.0 mi Calm Calm - N/A   Clear
6:53 PM 57.0 °F - 48.9 °F 74% 30.44 in 10.0 mi Calm Calm - N/A   Clear
7:53 PM 51.1 °F - 46.9 °F 86% 30.46 in 10.0 mi Calm Calm - N/A   Clear
8:53 PM 48.9 °F - 45.0 °F 86% 30.47 in 10.0 mi Calm Calm - N/A   Clear
9:53 PM 48.0 °F - 44.1 °F 86% 30.48 in 10.0 mi Calm Calm - N/A   Clear
10:53 PM 46.0 °F - 43.0 °F 89% 30.48 in 10.0 mi Calm Calm - N/A   Clear
11:51 PM 44.6 °F - 42.8 °F 93% 30.47 in 1.8 mi Calm Calm - N/A   Clear
11:53 PM 44.1 °F - 41.0 °F 89% 30.48 in 1.5 mi Calm Calm - N/A   Clear